LNI393 WIBB-WIII

Flight info

Callsign LNI393
Flight time 1h 28m
Altitude 33000
Route ISROR T5 BUNIK
Aircraft B739/M-SDE2E3FGHIRWXY/LB1

Departure

Time 2026-05-05 05:47
Airport Sultan Syarif Kasim II International Airport / Roesmin Nurjadin AFB (WIBB)

Arrival

Time 2026-05-05 07:15
Airport Soekarno-Hatta International Airport (WIII)
Time Latitude Longitude Altitude Speed Heading
2026-05-05 05:21 0.46481 101.44680 126 ft 0 kts 91°
2026-05-05 05:38 0.46481 101.44676 126 ft 2 kts 91°
2026-05-05 05:38 0.46481 101.44658 123 ft 3 kts 91°
2026-05-05 05:39 0.46482 101.44638 127 ft 3 kts 91°
2026-05-05 05:39 0.46482 101.44621 123 ft 2 kts 90°
2026-05-05 05:39 0.46480 101.44603 123 ft 3 kts 55°
2026-05-05 05:39 0.46467 101.44593 127 ft 3 kts 11°
2026-05-05 05:40 0.46450 101.44590 124 ft 1 kts
2026-05-05 05:40 0.46445 101.44590 127 ft 0 kts
2026-05-05 05:42 0.46447 101.44590 123 ft 1 kts
2026-05-05 05:42 0.46469 101.44591 127 ft 5 kts
2026-05-05 05:42 0.46517 101.44593 127 ft 9 kts
2026-05-05 05:43 0.46584 101.44595 124 ft 9 kts
2026-05-05 05:43 0.46628 101.44574 127 ft 7 kts 292°
2026-05-05 05:43 0.46634 101.44526 124 ft 7 kts 276°
2026-05-05 05:43 0.46649 101.44481 128 ft 7 kts 318°
2026-05-05 05:44 0.46700 101.44471 125 ft 10 kts 359°
2026-05-05 05:44 0.46795 101.44474 127 ft 17 kts
2026-05-05 05:44 0.46899 101.44477 128 ft 12 kts
2026-05-05 05:44 0.46983 101.44467 127 ft 12 kts 343°
2026-05-05 05:45 0.47060 101.44464 123 ft 4 kts
2026-05-05 05:45 0.47081 101.44475 130 ft 4 kts 68°
2026-05-05 05:45 0.47065 101.44492 125 ft 4 kts 177°
2026-05-05 05:45 0.47040 101.44482 125 ft 4 kts 194°
2026-05-05 05:46 0.47014 101.44481 123 ft 3 kts 182°
2026-05-05 05:46 0.47012 101.44481 127 ft 1 kts 182°
2026-05-05 05:46 0.46787 101.44473 129 ft 71 kts 182°
2026-05-05 05:46 0.46038 101.44450 125 ft 141 kts 182°
2026-05-05 05:47 0.44892 101.44414 336 ft 175 kts 182°
2026-05-05 05:47 0.43628 101.44395 1006 ft 190 kts 180°
2026-05-05 05:47 0.42273 101.44345 1692 ft 199 kts 183°
2026-05-05 05:47 0.40895 101.44683 2106 ft 220 kts 144°
2026-05-05 05:48 0.39820 101.45860 2356 ft 239 kts 128°
2026-05-05 05:48 0.38777 101.47187 2852 ft 246 kts 129°
2026-05-05 05:48 0.37703 101.48528 3485 ft 248 kts 129°
2026-05-05 05:48 0.36616 101.49876 4114 ft 251 kts 129°
2026-05-05 05:49 0.35524 101.51214 4738 ft 253 kts 129°
2026-05-05 05:49 0.34403 101.52580 5346 ft 255 kts 129°
2026-05-05 05:49 0.33265 101.53960 5907 ft 259 kts 129°
2026-05-05 05:49 0.32112 101.55353 6494 ft 261 kts 129°
2026-05-05 05:50 0.30946 101.56755 7044 ft 265 kts 129°
2026-05-05 05:50 0.29739 101.58207 7318 ft 283 kts 129°
2026-05-05 05:50 0.28458 101.59746 7864 ft 291 kts 129°
2026-05-05 05:50 0.27155 101.61307 8511 ft 294 kts 129°
2026-05-05 05:51 0.25837 101.62886 9169 ft 297 kts 129°
2026-05-05 05:51 0.24504 101.64482 9795 ft 298 kts 129°
2026-05-05 05:51 0.23175 101.66071 9985 ft 298 kts 129°
2026-05-05 05:51 0.21847 101.67662 9999 ft 298 kts 129°
2026-05-05 05:52 0.20512 101.69259 10008 ft 300 kts 129°
2026-05-05 05:52 0.19172 101.70864 10011 ft 301 kts 129°
2026-05-05 05:52 0.17831 101.72469 10010 ft 301 kts 129°
2026-05-05 05:52 0.16488 101.74076 10006 ft 301 kts 129°
2026-05-05 05:53 0.15144 101.75684 10009 ft 302 kts 129°
2026-05-05 05:53 0.13802 101.77292 9999 ft 301 kts 129°
2026-05-05 05:53 0.12457 101.78901 10000 ft 301 kts 129°
2026-05-05 05:53 0.11106 101.80501 10017 ft 304 kts 130°
2026-05-05 05:54 0.09684 101.82143 10151 ft 322 kts 130°
2026-05-05 05:54 0.08174 101.83879 10311 ft 341 kts 131°
2026-05-05 05:54 0.06579 101.85712 10528 ft 356 kts 131°
2026-05-05 05:54 0.04942 101.87596 10989 ft 362 kts 131°
2026-05-05 05:55 0.03293 101.89496 11656 ft 361 kts 130°
2026-05-05 05:55 0.01647 101.91395 12286 ft 362 kts 130°
2026-05-05 05:55 -0.00005 101.93302 12835 ft 365 kts 130°
2026-05-05 05:55 -0.01675 101.95229 13362 ft 368 kts 130°
2026-05-05 05:56 -0.03356 101.97169 13881 ft 371 kts 130°
2026-05-05 05:56 -0.05052 101.99126 14395 ft 373 kts 130°
2026-05-05 05:56 -0.06735 102.01068 14891 ft 376 kts 130°
2026-05-05 05:56 -0.08452 102.03047 15374 ft 378 kts 130°
2026-05-05 05:57 -0.10182 102.05043 15853 ft 381 kts 130°
2026-05-05 05:57 -0.11922 102.07051 16322 ft 383 kts 130°
2026-05-05 05:57 -0.13670 102.09069 16776 ft 386 kts 130°
2026-05-05 05:57 -0.15435 102.11105 17217 ft 388 kts 129°
2026-05-05 05:58 -0.17206 102.13150 17644 ft 390 kts 129°
2026-05-05 05:58 -0.19012 102.15236 18067 ft 393 kts 129°
2026-05-05 05:58 -0.20805 102.17305 18475 ft 395 kts 129°
2026-05-05 05:58 -0.22609 102.19386 18843 ft 398 kts 129°
2026-05-05 05:59 -0.24401 102.21452 18843 ft 399 kts 129°
2026-05-05 05:59 -0.26222 102.23547 18857 ft 399 kts 129°
2026-05-05 05:59 -0.28043 102.25642 18859 ft 399 kts 129°
2026-05-05 05:59 -0.29860 102.27732 18866 ft 399 kts 129°
2026-05-05 06:00 -0.31680 102.29826 18866 ft 399 kts 129°
2026-05-05 06:00 -0.33358 102.32033 18871 ft 401 kts 119°
2026-05-05 06:00 -0.34686 102.34495 19199 ft 403 kts 116°
2026-05-05 06:00 -0.35949 102.36981 19718 ft 401 kts 116°
2026-05-05 06:01 -0.37217 102.39458 20163 ft 401 kts 116°
2026-05-05 06:01 -0.38509 102.41937 20485 ft 404 kts 117°
2026-05-05 06:01 -0.39827 102.44426 20785 ft 407 kts 117°
2026-05-05 06:01 -0.41163 102.46925 21097 ft 409 kts 117°
2026-05-05 06:02 -0.42509 102.49434 21414 ft 411 kts 117°
2026-05-05 06:02 -0.43863 102.51958 21744 ft 412 kts 117°
2026-05-05 06:02 -0.45220 102.54484 22068 ft 414 kts 117°
2026-05-05 06:02 -0.46589 102.57023 22345 ft 416 kts 117°
2026-05-05 06:03 -0.47962 102.59573 22648 ft 417 kts 117°
2026-05-05 06:03 -0.49339 102.62130 22912 ft 419 kts 117°
2026-05-05 06:03 -0.50724 102.64704 23165 ft 421 kts 117°
2026-05-05 06:03 -0.52113 102.67286 23410 ft 423 kts 117°
2026-05-05 06:04 -0.53509 102.69881 23687 ft 424 kts 117°
2026-05-05 06:04 -0.54907 102.72477 23931 ft 425 kts 117°
2026-05-05 06:04 -0.56311 102.75087 24156 ft 427 kts 117°
2026-05-05 06:04 -0.57720 102.77705 24375 ft 429 kts 117°
2026-05-05 06:05 -0.59135 102.80337 24598 ft 430 kts 117°
2026-05-05 06:05 -0.60553 102.82972 24813 ft 432 kts 117°
2026-05-05 06:05 -0.61978 102.85619 25025 ft 433 kts 117°
2026-05-05 06:05 -0.63407 102.88275 25212 ft 435 kts 117°
2026-05-05 06:06 -0.64844 102.90942 25404 ft 437 kts 117°
2026-05-05 06:06 -0.66285 102.93621 25617 ft 438 kts 117°
2026-05-05 06:06 -0.67727 102.96301 25825 ft 439 kts 117°
2026-05-05 06:06 -0.69174 102.98992 26014 ft 440 kts 117°
2026-05-05 06:07 -0.70625 103.01690 26202 ft 442 kts 117°
2026-05-05 06:07 -0.72082 103.04400 26359 ft 444 kts 117°
2026-05-05 06:07 -0.73528 103.07089 26517 ft 446 kts 117°
2026-05-05 06:07 -0.74997 103.09819 26681 ft 447 kts 117°
2026-05-05 06:08 -0.76471 103.12558 26850 ft 448 kts 118°
2026-05-05 06:08 -0.77947 103.15299 27010 ft 449 kts 117°
2026-05-05 06:08 -0.79428 103.18055 27142 ft 451 kts 118°
2026-05-05 06:08 -0.80914 103.20820 27299 ft 452 kts 118°
2026-05-05 06:09 -0.82404 103.23590 27468 ft 453 kts 118°
2026-05-05 06:09 -0.83899 103.26369 27621 ft 454 kts 118°
2026-05-05 06:09 -0.85393 103.29149 27768 ft 456 kts 118°
2026-05-05 06:09 -0.86896 103.31945 27926 ft 456 kts 118°
2026-05-05 06:10 -0.88402 103.34739 28070 ft 457 kts 118°
2026-05-05 06:10 -0.90225 103.37343 28152 ft 460 kts 134°
2026-05-05 06:10 -0.92662 103.39422 28300 ft 462 kts 141°
2026-05-05 06:10 -0.95180 103.41410 28450 ft 462 kts 141°
2026-05-05 06:11 -0.97702 103.43395 28796 ft 457 kts 141°
2026-05-05 06:11 -1.00147 103.45330 29627 ft 441 kts 140°
2026-05-05 06:11 -1.02508 103.47214 30472 ft 427 kts 140°
2026-05-05 06:11 -1.04800 103.49057 31095 ft 420 kts 140°
2026-05-05 06:12 -1.07072 103.50892 31349 ft 422 kts 140°
2026-05-05 06:12 -1.09366 103.52748 31490 ft 426 kts 140°
2026-05-05 06:12 -1.11671 103.54616 31698 ft 427 kts 140°
2026-05-05 06:12 -1.13982 103.56488 31934 ft 429 kts 141°
2026-05-05 06:13 -1.16301 103.58368 32163 ft 430 kts 141°
2026-05-05 06:13 -1.18626 103.60250 32389 ft 431 kts 141°
2026-05-05 06:13 -1.20961 103.62141 32611 ft 433 kts 141°
2026-05-05 06:13 -1.23312 103.64044 32725 ft 437 kts 140°
2026-05-05 06:14 -1.28041 103.67873 32842 ft 439 kts 140°
2026-05-05 06:14 -1.32782 103.71712 32853 ft 445 kts 140°
2026-05-05 06:15 -1.37625 103.75633 32851 ft 450 kts 140°
2026-05-05 06:15 -1.42519 103.79596 32855 ft 455 kts 140°
2026-05-05 06:16 -1.47463 103.83601 32843 ft 459 kts 140°
2026-05-05 06:16 -1.52447 103.87637 32835 ft 463 kts 140°
2026-05-05 06:17 -1.57462 103.91698 32833 ft 465 kts 140°
2026-05-05 06:17 -1.62504 103.95781 32839 ft 467 kts 140°
2026-05-05 06:18 -1.67562 103.99879 32835 ft 469 kts 140°
2026-05-05 06:18 -1.72620 104.03976 32826 ft 468 kts 140°
2026-05-05 06:19 -1.77671 104.08068 32832 ft 466 kts 140°
2026-05-05 06:19 -1.82697 104.12140 32832 ft 465 kts 140°
2026-05-05 06:20 -1.87710 104.16203 32831 ft 463 kts 140°
2026-05-05 06:20 -1.92709 104.20255 32827 ft 462 kts 140°
2026-05-05 06:21 -1.97692 104.24293 32831 ft 460 kts 140°
2026-05-05 06:21 -2.02664 104.28315 32833 ft 460 kts 140°
2026-05-05 06:22 -2.07639 104.32342 32838 ft 460 kts 140°
2026-05-05 06:22 -2.12606 104.36364 32833 ft 460 kts 140°
2026-05-05 06:23 -2.17581 104.40395 32835 ft 460 kts 140°
2026-05-05 06:23 -2.22562 104.44430 32836 ft 461 kts 140°
2026-05-05 06:24 -2.27554 104.48474 32836 ft 462 kts 140°
2026-05-05 06:24 -2.32555 104.52525 32832 ft 463 kts 140°
2026-05-05 06:25 -2.37559 104.56580 32837 ft 463 kts 140°
2026-05-05 06:25 -2.42565 104.60639 32835 ft 463 kts 140°
2026-05-05 06:26 -2.47567 104.64694 32835 ft 463 kts 140°
2026-05-05 06:26 -2.52568 104.68746 32832 ft 463 kts 140°
2026-05-05 06:27 -2.60064 104.74824 32833 ft 462 kts 140°
2026-05-05 06:28 -2.65049 104.78866 32833 ft 461 kts 140°
2026-05-05 06:28 -2.70033 104.82906 32835 ft 461 kts 140°
2026-05-05 06:29 -2.74169 104.86261 32831 ft 460 kts 140°
2026-05-05 06:29 -2.79944 104.90944 32834 ft 459 kts 140°
2026-05-05 06:30 -2.84101 104.94314 32830 ft 459 kts 140°
2026-05-05 06:30 -2.89866 104.98991 32830 ft 460 kts 140°
2026-05-05 06:31 -2.94023 105.02365 32834 ft 459 kts 140°
2026-05-05 06:31 -2.98988 105.06394 32832 ft 460 kts 140°
2026-05-05 06:32 -3.03954 105.10424 32842 ft 460 kts 140°
2026-05-05 06:32 -3.08922 105.14457 32831 ft 460 kts 140°
2026-05-05 06:33 -3.13893 105.18492 32834 ft 460 kts 140°
2026-05-05 06:33 -3.18863 105.22528 32830 ft 460 kts 140°
2026-05-05 06:34 -3.23833 105.26563 32833 ft 460 kts 140°
2026-05-05 06:34 -3.28781 105.30621 32835 ft 460 kts 139°
2026-05-05 06:35 -3.33659 105.34711 32833 ft 460 kts 139°
2026-05-05 06:35 -3.38566 105.38828 32837 ft 460 kts 139°
2026-05-05 06:36 -3.43509 105.42963 32835 ft 460 kts 139°
2026-05-05 06:36 -3.48415 105.47064 32826 ft 460 kts 139°
2026-05-05 06:37 -3.53322 105.51169 32861 ft 461 kts 139°
2026-05-05 06:37 -3.58303 105.55307 32807 ft 467 kts 139°
2026-05-05 06:38 -3.63185 105.59408 32829 ft 458 kts 139°
2026-05-05 06:38 -3.68060 105.63480 32850 ft 455 kts 139°
2026-05-05 06:39 -3.72928 105.67539 32850 ft 456 kts 139°
2026-05-05 06:39 -3.77814 105.71617 32836 ft 457 kts 139°
2026-05-05 06:40 -3.82698 105.75696 32853 ft 457 kts 139°
2026-05-05 06:40 -3.87596 105.79788 32847 ft 459 kts 139°
2026-05-05 06:41 -3.92498 105.83884 32838 ft 459 kts 139°
2026-05-05 06:41 -3.97401 105.87978 32842 ft 458 kts 139°
2026-05-05 06:42 -4.02297 105.92070 32837 ft 458 kts 139°
2026-05-05 06:42 -4.07192 105.96160 32852 ft 459 kts 139°
2026-05-05 06:43 -4.12100 106.00264 32836 ft 460 kts 139°
2026-05-05 06:43 -4.17009 106.04368 32827 ft 460 kts 139°
2026-05-05 06:44 -4.21918 106.08473 32837 ft 460 kts 139°
2026-05-05 06:44 -4.26831 106.12584 32836 ft 461 kts 139°
2026-05-05 06:45 -4.31760 106.16706 32847 ft 461 kts 139°
2026-05-05 06:45 -4.36699 106.20837 32827 ft 463 kts 139°
2026-05-05 06:46 -4.41641 106.24972 32836 ft 462 kts 139°
2026-05-05 06:46 -4.46569 106.29098 32828 ft 461 kts 139°
2026-05-05 06:47 -4.51476 106.33206 32830 ft 459 kts 139°
2026-05-05 06:47 -4.56371 106.37307 32830 ft 458 kts 139°
2026-05-05 06:48 -4.61256 106.41397 32832 ft 458 kts 139°
2026-05-05 06:48 -4.66143 106.45489 32836 ft 458 kts 139°
2026-05-05 06:49 -4.71036 106.49587 32834 ft 459 kts 139°
2026-05-05 06:49 -4.75941 106.53696 32835 ft 460 kts 139°
2026-05-05 06:50 -4.80850 106.57813 32820 ft 461 kts 139°
2026-05-05 06:50 -4.83328 106.59891 32371 ft 466 kts 139°
2026-05-05 06:50 -4.85818 106.61956 31891 ft 463 kts 142°
2026-05-05 06:50 -4.88592 106.63565 31358 ft 460 kts 155°
2026-05-05 06:51 -4.91502 106.64839 30862 ft 455 kts 155°
2026-05-05 06:51 -4.94392 106.66105 30325 ft 451 kts 154°
2026-05-05 06:51 -4.97252 106.67377 29802 ft 447 kts 154°
2026-05-05 06:51 -5.00077 106.68655 29285 ft 443 kts 154°
2026-05-05 06:52 -5.02871 106.69931 28769 ft 439 kts 153°
2026-05-05 06:52 -5.05639 106.71202 28255 ft 436 kts 154°
2026-05-05 06:52 -5.08377 106.72462 27745 ft 432 kts 154°
2026-05-05 06:52 -5.11101 106.73713 27239 ft 428 kts 154°
2026-05-05 06:53 -5.13800 106.74953 26727 ft 425 kts 154°
2026-05-05 06:53 -5.16438 106.76163 26233 ft 421 kts 154°
2026-05-05 06:53 -5.19092 106.77376 25737 ft 418 kts 154°
2026-05-05 06:53 -5.21729 106.78572 25241 ft 414 kts 154°
2026-05-05 06:54 -5.24344 106.79754 24760 ft 411 kts 154°
2026-05-05 06:54 -5.26945 106.80928 24259 ft 408 kts 154°
2026-05-05 06:54 -5.29524 106.82094 23777 ft 405 kts 154°
2026-05-05 06:54 -5.32083 106.83253 23292 ft 402 kts 154°
2026-05-05 06:55 -5.34621 106.84403 22814 ft 399 kts 154°
2026-05-05 06:55 -5.37141 106.85545 22337 ft 396 kts 154°
2026-05-05 06:55 -5.39646 106.86681 21858 ft 393 kts 154°
2026-05-05 06:55 -5.42130 106.87807 21393 ft 391 kts 154°
2026-05-05 06:56 -5.44573 106.88907 21115 ft 382 kts 156°
2026-05-05 06:56 -5.47109 106.89531 20963 ft 374 kts 176°
2026-05-05 06:56 -5.49687 106.89294 20483 ft 375 kts 194°
2026-05-05 06:56 -5.52151 106.88427 20041 ft 374 kts 200°
2026-05-05 06:57 -5.54573 106.87474 19534 ft 375 kts 200°
2026-05-05 06:57 -5.56995 106.86507 19032 ft 374 kts 200°
2026-05-05 06:57 -5.59416 106.85546 18536 ft 374 kts 200°
2026-05-05 06:57 -5.61836 106.84595 18044 ft 373 kts 200°
2026-05-05 06:58 -5.64255 106.83653 17546 ft 373 kts 200°
2026-05-05 06:58 -5.66675 106.82715 17050 ft 372 kts 200°
2026-05-05 06:58 -5.69089 106.81783 16554 ft 371 kts 200°
2026-05-05 06:58 -5.71494 106.80855 16058 ft 370 kts 200°
2026-05-05 06:59 -5.73895 106.79929 15565 ft 369 kts 200°
2026-05-05 06:59 -5.76288 106.79006 15075 ft 368 kts 200°
2026-05-05 06:59 -5.78670 106.78088 14586 ft 367 kts 200°
2026-05-05 06:59 -5.81062 106.77170 14101 ft 367 kts 200°
2026-05-05 07:00 -5.83441 106.76248 13616 ft 365 kts 200°
2026-05-05 07:00 -5.85688 106.75080 13082 ft 366 kts 219°
2026-05-05 07:00 -5.87362 106.73188 12673 ft 362 kts 239°
2026-05-05 07:00 -5.88415 106.70909 12274 ft 358 kts 248°
2026-05-05 07:01 -5.89310 106.68596 11846 ft 355 kts 249°
2026-05-05 07:01 -5.90185 106.66299 11419 ft 352 kts 249°
2026-05-05 07:01 -5.91072 106.64011 10991 ft 350 kts 248°
2026-05-05 07:01 -5.91955 106.61780 10593 ft 347 kts 248°
2026-05-05 07:02 -5.92851 106.59538 10185 ft 345 kts 248°
2026-05-05 07:02 -5.93742 106.57320 9931 ft 337 kts 248°
2026-05-05 07:02 -5.94610 106.55189 9930 ft 322 kts 248°
2026-05-05 07:02 -5.95441 106.53153 9910 ft 308 kts 248°
2026-05-05 07:03 -5.96238 106.51203 9843 ft 297 kts 247°
2026-05-05 07:03 -5.97014 106.49302 9596 ft 292 kts 247°
2026-05-05 07:03 -5.97783 106.47419 9244 ft 292 kts 248°
2026-05-05 07:03 -5.98549 106.45540 8854 ft 289 kts 248°
2026-05-05 07:04 -5.99309 106.43676 8391 ft 288 kts 248°
2026-05-05 07:04 -6.00064 106.41823 8146 ft 287 kts 247°
2026-05-05 07:04 -6.00814 106.39981 7916 ft 286 kts 247°
2026-05-05 07:04 -6.01567 106.38131 7703 ft 284 kts 247°
2026-05-05 07:05 -6.02306 106.36312 7488 ft 279 kts 247°
2026-05-05 07:05 -6.03035 106.34525 7287 ft 274 kts 247°
2026-05-05 07:05 -6.04014 106.32924 7043 ft 267 kts 220°
2026-05-05 07:05 -6.05573 106.32033 6870 ft 255 kts 193°
2026-05-05 07:06 -6.07296 106.31841 6667 ft 246 kts 173°
2026-05-05 07:06 -6.08969 106.32078 6443 ft 241 kts 167°
2026-05-05 07:06 -6.10587 106.32388 6251 ft 239 kts 167°
2026-05-05 07:06 -6.12225 106.32699 6026 ft 237 kts 167°
2026-05-05 07:07 -6.13829 106.32996 5823 ft 233 kts 167°
2026-05-05 07:07 -6.15418 106.33284 5625 ft 230 kts 167°
2026-05-05 07:07 -6.16968 106.33558 5452 ft 223 kts 167°
2026-05-05 07:07 -6.18470 106.33823 5260 ft 215 kts 167°
2026-05-05 07:08 -6.19900 106.34113 5052 ft 203 kts 157°
2026-05-05 07:08 -6.20950 106.34940 4881 ft 189 kts 124°
2026-05-05 07:08 -6.21680 106.36036 4748 ft 191 kts 120°
2026-05-05 07:08 -6.22389 106.37172 4594 ft 192 kts 120°
2026-05-05 07:09 -6.23099 106.38318 4445 ft 193 kts 120°
2026-05-05 07:09 -6.23701 106.39523 4272 ft 194 kts 100°
2026-05-05 07:09 -6.23612 106.40852 4133 ft 191 kts 71°
2026-05-05 07:09 -6.23083 106.42050 3974 ft 187 kts 69°
2026-05-05 07:10 -6.22624 106.43272 3836 ft 187 kts 69°
2026-05-05 07:10 -6.22144 106.44488 3678 ft 187 kts 69°
2026-05-05 07:10 -6.21660 106.45704 3532 ft 187 kts 69°
2026-05-05 07:10 -6.21170 106.46920 3384 ft 188 kts 69°
2026-05-05 07:11 -6.20695 106.48111 3243 ft 186 kts 69°
2026-05-05 07:11 -6.20211 106.49332 3120 ft 186 kts 69°
2026-05-05 07:11 -6.19749 106.50496 2914 ft 173 kts 69°
2026-05-05 07:11 -6.19315 106.51589 2657 ft 164 kts 70°
2026-05-05 07:12 -6.18903 106.52632 2505 ft 159 kts 69°
2026-05-05 07:12 -6.18498 106.53653 2301 ft 158 kts 69°
2026-05-05 07:12 -6.18091 106.54682 2063 ft 157 kts 69°
2026-05-05 07:12 -6.17680 106.55716 1860 ft 160 kts 68°
2026-05-05 07:13 -6.17276 106.56741 1656 ft 155 kts 68°
2026-05-05 07:13 -6.16876 106.57748 1431 ft 155 kts 68°
2026-05-05 07:13 -6.16477 106.58751 1217 ft 154 kts 68°
2026-05-05 07:13 -6.16081 106.59755 1016 ft 155 kts 68°
2026-05-05 07:14 -6.15681 106.60765 821 ft 156 kts 68°
2026-05-05 07:14 -6.15283 106.61771 601 ft 154 kts 68°
2026-05-05 07:14 -6.14882 106.62766 395 ft 155 kts 67°
2026-05-05 07:14 -6.14491 106.63772 208 ft 154 kts 68°
2026-05-05 07:15 -6.14087 106.64765 44 ft 152 kts 68°
2026-05-05 07:15 -6.13841 106.65380 38 ft 135 kts 68°
2026-05-05 07:15 -6.13547 106.66122 38 ft 93 kts 68°
2026-05-05 07:15 -6.13313 106.66612 41 ft 18 kts 43°
2026-05-05 07:16 -6.13264 106.66653 37 ft 11 kts 39°
2026-05-05 07:16 -6.13201 106.66699 37 ft 11 kts 17°
2026-05-05 07:16 -6.13128 106.66681 36 ft 11 kts 338°
2026-05-05 07:16 -6.13067 106.66650 37 ft 9 kts 310°
2026-05-05 07:17 -6.13066 106.66589 37 ft 9 kts 251°
2026-05-05 07:17 -6.13089 106.66532 37 ft 9 kts 248°
2026-05-05 07:17 -6.13111 106.66476 36 ft 8 kts 248°
2026-05-05 07:17 -6.13132 106.66422 37 ft 8 kts 248°
2026-05-05 07:18 -6.13153 106.66370 36 ft 8 kts 248°
2026-05-05 07:18 -6.13173 106.66319 36 ft 8 kts 248°
2026-05-05 07:18 -6.13188 106.66269 37 ft 7 kts 270°
2026-05-05 07:18 -6.13160 106.66229 36 ft 7 kts 332°
2026-05-05 07:19 -6.13113 106.66210 36 ft 8 kts 338°
2026-05-05 07:19 -6.13039 106.66180 36 ft 15 kts 338°
2026-05-05 07:19 -6.12944 106.66142 37 ft 15 kts 338°
2026-05-05 07:19 -6.12879 106.66117 37 ft 5 kts 339°
2026-05-05 07:20 -6.12849 106.66105 34 ft 5 kts 339°
2026-05-05 07:20 -6.12810 106.66088 37 ft 7 kts 334°
2026-05-05 07:20 -6.12767 106.66059 37 ft 7 kts 317°
2026-05-05 07:20 -6.12734 106.66021 35 ft 7 kts 308°
2026-05-05 07:21 -6.12732 106.65984 37 ft 5 kts 240°
2026-05-05 07:21 -6.12755 106.65961 37 ft 3 kts 221°
2026-05-05 07:21 -6.12769 106.65949 37 ft 3 kts 221°
2026-05-05 07:21 -6.12777 106.65942 37 ft 1 kts 221°
2026-05-05 07:22 -6.12779 106.65940 37 ft 0 kts 221°